| time (UTC) | temp C | wind direction | speed KPH | gust KPH | rain 1hr cm | rain 24hr cm | rain mn cm | humidity % | barometer mb |
| 20260508023515 | 8 | 294 | 0.0 | 1.6 | 0.00 | 0.30 | 0.28 | 97 | 1011.5 |
| 20260508023022 | 9 | 328 | 0.0 | 1.6 | 0.00 | 0.30 | 0.28 | 96 | 1011.3 |
| 20260508022513 | 9 | 9 | 0.0 | 0.0 | 0.00 | 0.30 | 0.28 | 96 | 1011.2 |
| 20260508022012 | 10 | 5 | 0.0 | 0.0 | 0.00 | 0.30 | 0.28 | 97 | 1011.2 |
| 20260508021512 | 10 | 5 | 0.0 | 0.0 | 0.00 | 0.30 | 0.28 | 97 | 1011.2 |
| 20260508021010 | 9 | 345 | 0.0 | 0.0 | 0.00 | 0.30 | 0.28 | 96 | 1011.1 |
| 20260508020509 | 9 | 345 | 0.0 | 0.0 | 0.00 | 0.30 | 0.28 | 96 | 1011.0 |
| 20260508020008 | 10 | 345 | 0.0 | 0.0 | 0.00 | 0.30 | 0.28 | 96 | 1011.0 |
| 20260508015508 | 10 | 345 | 0.0 | 0.0 | 0.00 | 0.30 | 0.28 | 96 | 1011.0 |
| 20260508015008 | 10 | 345 | 0.0 | 3.2 | 0.00 | 0.30 | 0.28 | 96 | 1011.0 |
| 20260508014509 | 10 | 345 | 1.6 | 3.2 | 0.00 | 0.30 | 0.28 | 96 | 1011.1 |
| 20260508014107 | 10 | 5 | 0.0 | 0.0 | 0.00 | 0.30 | 0.28 | 96 | 1010.9 |
| 20260508013504 | 10 | 9 | 0.0 | 0.0 | 0.00 | 0.30 | 0.28 | 96 | 1010.8 |
| 20260508013003 | 10 | 325 | 0.0 | 0.0 | 0.00 | 0.30 | 0.28 | 96 | 1010.7 |
| 20260508012505 | 11 | 325 | 0.0 | 0.0 | 0.00 | 0.30 | 0.28 | 96 | 1010.6 |
| 20260508012003 | 11 | 325 | 0.0 | 0.0 | 0.00 | 0.30 | 0.28 | 96 | 1010.5 |
| 20260508011502 | 11 | 325 | 0.0 | 0.0 | 0.00 | 0.30 | 0.28 | 96 | 1010.5 |
| 20260508011002 | 11 | 325 | 0.0 | 0.0 | 0.00 | 0.30 | 0.28 | 96 | 1010.5 |
| 20260508010501 | 11 | 325 | 0.0 | 0.0 | 0.00 | 0.30 | 0.28 | 96 | 1010.4 |
| 20260508010104 | 11 | 325 | 0.0 | 0.0 | 0.00 | 0.30 | 0.28 | 96 | 1010.3 |
| 20260508005501 | 11 | 325 | 0.0 | 0.0 | 0.00 | 0.30 | 0.28 | 96 | 1010.3 |
| 20260508005003 | 11 | 325 | 0.0 | 0.0 | 0.00 | 0.30 | 0.28 | 96 | 1010.3 |
| 20260508004501 | 11 | 325 | 0.0 | 0.0 | 0.00 | 0.30 | 0.28 | 96 | 1010.3 |
| 20260508004003 | 11 | 325 | 0.0 | 0.0 | 0.00 | 0.30 | 0.28 | 96 | 1010.2 |
| 20260508003506 | 11 | 325 | 0.0 | 0.0 | 0.00 | 0.30 | 0.28 | 96 | 1010.3 |
| 20260508003001 | 11 | 325 | 0.0 | 0.0 | 0.00 | 0.30 | 0.28 | 96 | 1010.2 |
| 20260508002504 | 11 | 325 | 0.0 | 0.0 | 0.00 | 0.30 | 0.28 | 96 | 1010.2 |
| 20260508002100 | 11 | 325 | 0.0 | 0.0 | 0.00 | 0.30 | 0.28 | 96 | 1010.2 |
| 20260508001600 | 11 | 325 | 0.0 | 0.0 | 0.00 | 0.30 | 0.28 | 96 | 1010.2 |
| 20260508001105 | 11 | 325 | 0.0 | 0.0 | 0.00 | 0.30 | 0.28 | 96 | 1010.2 |
| 20260508000600 | 11 | 325 | 0.0 | 0.0 | 0.00 | 0.30 | 0.28 | 95 | 1010.1 |
| 20260508000100 | 11 | 317 | 0.0 | 0.0 | 0.00 | 0.30 | 0.28 | 95 | 1010.0 |
| 20260507235559 | 11 | 317 | 0.0 | 0.0 | 0.00 | 0.30 | 0.28 | 95 | 1009.9 |
| 20260507235059 | 11 | 317 | 0.0 | 0.0 | 0.00 | 0.30 | 0.28 | 95 | 1009.7 |
| 20260507234559 | 11 | 317 | 0.0 | 0.0 | 0.00 | 0.30 | 0.28 | 95 | 1009.7 |
| 20260507234058 | 11 | 317 | 0.0 | 0.0 | 0.00 | 0.30 | 0.28 | 96 | 1009.6 |
| 20260507233601 | 11 | 317 | 0.0 | 0.0 | 0.00 | 0.30 | 0.28 | 96 | 1009.5 |
| 20260507233058 | 11 | 317 | 0.0 | 0.0 | 0.00 | 0.30 | 0.28 | 95 | 1009.5 |
| 20260507232600 | 11 | 317 | 0.0 | 0.0 | 0.00 | 0.30 | 0.28 | 95 | 1009.4 |
| 20260507232058 | 11 | 317 | 0.0 | 0.0 | 0.00 | 0.30 | 0.28 | 96 | 1009.3 |
| 20260507231600 | 11 | 317 | 0.0 | 0.0 | 0.00 | 0.30 | 0.28 | 95 | 1009.3 |
| 20260507231058 | 11 | 317 | 0.0 | 0.0 | 0.00 | 0.30 | 0.28 | 95 | 1009.3 |
| 20260507230602 | 11 | 317 | 0.0 | 0.0 | 0.00 | 0.30 | 0.28 | 95 | 1009.3 |
| 20260507230104 | 11 | 317 | 0.0 | 0.0 | 0.00 | 0.30 | 0.28 | 95 | 1009.3 |
| 20260507225557 | 11 | 317 | 0.0 | 0.0 | 0.00 | 0.30 | 0.28 | 95 | 1009.2 |
| 20260507225057 | 11 | 187 | 0.0 | 0.0 | 0.00 | 0.30 | 0.28 | 96 | 1009.2 |
| 20260507224600 | 11 | 187 | 0.0 | 0.0 | 0.00 | 0.30 | 0.28 | 96 | 1009.2 |
| 20260507224056 | 11 | 187 | 0.0 | 0.0 | 0.00 | 0.30 | 0.28 | 95 | 1009.2 |
| 20260507223556 | 11 | 187 | 0.0 | 0.0 | 0.00 | 0.30 | 0.28 | 95 | 1009.1 |
| 20260507223056 | 11 | 187 | 0.0 | 0.0 | 0.00 | 0.30 | 0.28 | 96 | 1009.1 |
| 20260507222559 | 11 | 187 | 0.0 | 0.0 | 0.00 | 0.30 | 0.28 | 96 | 1009.1 |
| 20260507222057 | 11 | 187 | 0.0 | 0.0 | 0.00 | 0.30 | 0.28 | 96 | 1009.1 |
| 20260507221555 | 11 | 187 | 0.0 | 0.0 | 0.00 | 0.30 | 0.28 | 96 | 1009.0 |
| 20260507221055 | 11 | 187 | 0.0 | 0.0 | 0.00 | 0.30 | 0.28 | 95 | 1009.0 |
| 20260507220555 | 11 | 187 | 0.0 | 0.0 | 0.00 | 0.30 | 0.28 | 95 | 1009.0 |
| 20260507220055 | 11 | 187 | 0.0 | 0.0 | 0.00 | 0.30 | 0.28 | 95 | 1009.0 |
| 20260507215555 | 11 | 187 | 0.0 | 0.0 | 0.00 | 0.30 | 0.28 | 95 | 1009.0 |
| 20260507215055 | 11 | 187 | 0.0 | 0.0 | 0.00 | 0.30 | 0.28 | 95 | 1009.1 |
| 20260507214606 | 11 | 187 | 0.0 | 0.0 | 0.00 | 0.30 | 0.28 | 95 | 1009.1 |
| 20260507214054 | 11 | 187 | 0.0 | 0.0 | 0.00 | 0.30 | 0.28 | 95 | 1009.0 |
| 20260507213554 | 11 | 187 | 0.0 | 0.0 | 0.00 | 0.30 | 0.28 | 95 | 1009.1 |
| 20260507213056 | 11 | 187 | 0.0 | 0.0 | 0.00 | 0.30 | 0.28 | 95 | 1009.1 |
| 20260507212554 | 11 | 187 | 0.0 | 0.0 | 0.00 | 0.30 | 0.28 | 94 | 1009.1 |
| 20260507212057 | 11 | 187 | 0.0 | 0.0 | 0.00 | 0.30 | 0.28 | 94 | 1009.0 |
| 20260507211559 | 11 | 187 | 0.0 | 0.0 | 0.00 | 0.30 | 0.28 | 94 | 1009.1 |
| 20260507211053 | 11 | 187 | 0.0 | 0.0 | 0.00 | 0.30 | 0.28 | 94 | 1008.9 |
| 20260507210553 | 12 | 269 | 0.0 | 0.0 | 0.00 | 0.30 | 0.28 | 94 | 1008.9 |
| 20260507210059 | 11 | 269 | 0.0 | 0.0 | 0.00 | 0.30 | 0.28 | 94 | 1008.8 |
| 20260507205553 | 11 | 276 | 0.0 | 0.0 | 0.00 | 0.30 | 0.28 | 94 | 1008.8 |
| 20260507205052 | 11 | 327 | 0.0 | 0.0 | 0.00 | 0.30 | 0.28 | 94 | 1008.8 |
| 20260507204552 | 11 | 323 | 0.0 | 0.0 | 0.00 | 0.30 | 0.28 | 94 | 1008.8 |
| 20260507204057 | 11 | 304 | 0.0 | 0.0 | 0.00 | 0.30 | 0.28 | 94 | 1008.9 |
| 20260507203552 | 12 | 317 | 0.0 | 0.0 | 0.00 | 0.30 | 0.28 | 94 | 1008.8 |
| 20260507203105 | 12 | 317 | 0.0 | 0.0 | 0.00 | 0.30 | 0.28 | 95 | 1008.9 |
| 20260507202551 | 11 | 317 | 0.0 | 0.0 | 0.00 | 0.30 | 0.28 | 94 | 1009.0 |
| 20260507202051 | 11 | 317 | 0.0 | 0.0 | 0.00 | 0.30 | 0.28 | 94 | 1009.2 |
| 20260507201559 | 11 | 317 | 0.0 | 0.0 | 0.00 | 0.30 | 0.28 | 94 | 1009.2 |
| 20260507201054 | 11 | 98 | 0.0 | 0.0 | 0.00 | 0.30 | 0.28 | 95 | 1009.1 |
| 20260507200551 | 11 | 98 | 0.0 | 0.0 | 0.00 | 0.30 | 0.28 | 95 | 1009.0 |
| 20260507200106 | 11 | 96 | 0.0 | 0.0 | 0.00 | 0.30 | 0.28 | 95 | 1009.0 |
| 20260507195550 | 11 | 96 | 0.0 | 0.0 | 0.00 | 0.30 | 0.28 | 94 | 1009.1 |
| 20260507195050 | 11 | 96 | 0.0 | 0.0 | 0.00 | 0.30 | 0.28 | 94 | 1009.1 |
| 20260507194551 | 11 | 165 | 0.0 | 0.0 | 0.00 | 0.30 | 0.28 | 94 | 1009.3 |
| 20260507194050 | 11 | 165 | 0.0 | 0.0 | 0.00 | 0.30 | 0.28 | 94 | 1009.5 |
| 20260507193550 | 11 | 100 | 0.0 | 0.0 | 0.00 | 0.30 | 0.28 | 95 | 1009.4 |
| 20260507193051 | 11 | 57 | 0.0 | 0.0 | 0.00 | 0.30 | 0.28 | 95 | 1009.4 |
| 20260507192551 | 11 | 66 | 0.0 | 0.0 | 0.00 | 0.30 | 0.28 | 95 | 1009.5 |
| 20260507192049 | 11 | 57 | 0.0 | 0.0 | 0.00 | 0.30 | 0.28 | 95 | 1009.5 |
| 20260507191548 | 11 | 57 | 0.0 | 4.8 | 0.00 | 0.30 | 0.28 | 95 | 1009.8 |
| 20260507191048 | 11 | 346 | 1.6 | 4.8 | 0.00 | 0.30 | 0.28 | 95 | 1010.2 |
| 20260507190551 | 11 | 322 | 0.0 | 4.8 | 0.00 | 0.30 | 0.28 | 95 | 1009.9 |
| 20260507190049 | 11 | 90 | 0.0 | 4.8 | 0.00 | 0.30 | 0.28 | 96 | 1009.9 |
| 20260507185549 | 11 | 345 | 0.0 | 0.0 | 0.03 | 0.30 | 0.28 | 95 | 1010.0 |
| 20260507185047 | 11 | 49 | 0.0 | 0.0 | 0.03 | 0.30 | 0.28 | 96 | 1010.1 |
| 20260507184551 | 11 | 42 | 0.0 | 0.0 | 0.03 | 0.30 | 0.28 | 96 | 1010.1 |
| 20260507184046 | 11 | 42 | 0.0 | 0.0 | 0.08 | 0.30 | 0.28 | 96 | 1010.1 |
| 20260507183546 | 11 | 74 | 0.0 | 0.0 | 0.13 | 0.30 | 0.28 | 96 | 1010.0 |
| 20260507183048 | 11 | 325 | 0.0 | 0.0 | 0.13 | 0.30 | 0.28 | 96 | 1010.0 |
| 20260507182545 | 11 | 175 | 0.0 | 0.0 | 0.13 | 0.30 | 0.28 | 96 | 1010.1 |
| 20260507182049 | 11 | 290 | 0.0 | 0.0 | 0.13 | 0.30 | 0.28 | 96 | 1010.0 |
| 20260507181544 | 11 | 109 | 0.0 | 0.0 | 0.13 | 0.30 | 0.28 | 96 | 1010.0 |
| 20260507181044 | 11 | 241 | 0.0 | 1.6 | 0.13 | 0.30 | 0.28 | 96 | 1010.1 |
| 20260507180547 | 11 | 136 | 0.0 | 3.2 | 0.13 | 0.30 | 0.28 | 96 | 1010.0 |
| 20260507180047 | 11 | 115 | 0.0 | 3.2 | 0.13 | 0.30 | 0.28 | 96 | 1010.0 |
| 20260507175546 | 11 | 270 | 0.0 | 11.3 | 0.10 | 0.28 | 0.25 | 96 | 1009.9 |
| 20260507175042 | 11 | 150 | 1.6 | 11.3 | 0.10 | 0.28 | 0.25 | 96 | 1009.8 |
| 20260507174546 | 11 | 161 | 0.0 | 6.4 | 0.10 | 0.28 | 0.25 | 96 | 1009.8 |
| 20260507174040 | 11 | 178 | 1.6 | 6.4 | 0.05 | 0.20 | 0.18 | 96 | 1009.8 |
| 20260507173541 | 11 | 65 | 0.0 | 0.0 | 0.03 | 0.18 | 0.15 | 96 | 1010.1 |
| 20260507173043 | 11 | 174 | 0.0 | 0.0 | 0.03 | 0.18 | 0.15 | 95 | 1010.0 |
| 20260507172543 | 11 | 195 | 0.0 | 0.0 | 0.03 | 0.18 | 0.15 | 96 | 1009.9 |
| 20260507172040 | 11 | 115 | 0.0 | 4.8 | 0.03 | 0.18 | 0.15 | 96 | 1009.9 |
| 20260507171542 | 11 | 140 | 0.0 | 4.8 | 0.03 | 0.18 | 0.15 | 95 | 1009.9 |
| 20260507171040 | 11 | 91 | 0.0 | 6.4 | 0.03 | 0.18 | 0.15 | 95 | 1010.1 |
| 20260507170540 | 11 | 110 | 0.0 | 6.4 | 0.03 | 0.18 | 0.15 | 96 | 1010.2 |
| 20260507170039 | 11 | 290 | 0.0 | 4.8 | 0.03 | 0.18 | 0.15 | 96 | 1010.2 |
| 20260507165538 | 11 | 132 | 0.0 | 4.8 | 0.03 | 0.18 | 0.15 | 96 | 1010.1 |
| 20260507165039 | 11 | 131 | 0.0 | 4.8 | 0.03 | 0.18 | 0.15 | 96 | 1010.3 |
| 20260507164546 | 11 | 112 | 0.0 | 0.0 | 0.03 | 0.18 | 0.15 | 95 | 1010.3 |
| 20260507164037 | 11 | 99 | 0.0 | 0.0 | 0.00 | 0.15 | 0.13 | 95 | 1010.3 |
| 20260507163537 | 11 | 138 | 0.0 | 1.6 | 0.03 | 0.15 | 0.13 | 95 | 1010.3 |
| 20260507163037 | 11 | 92 | 0.0 | 4.8 | 0.03 | 0.15 | 0.13 | 95 | 1010.2 |
| 20260507162536 | 11 | 63 | 0.0 | 4.8 | 0.03 | 0.15 | 0.13 | 96 | 1010.4 |
| 20260507162137 | 11 | 86 | 0.0 | 4.8 | 0.03 | 0.15 | 0.13 | 96 | 1010.3 |
| 20260507161536 | 11 | 78 | 0.0 | 3.2 | 0.03 | 0.15 | 0.13 | 96 | 1010.3 |
| 20260507161035 | 11 | 96 | 0.0 | 6.4 | 0.03 | 0.15 | 0.13 | 96 | 1010.4 |
| 20260507160535 | 11 | 172 | 0.0 | 6.4 | 0.03 | 0.15 | 0.13 | 96 | 1010.5 |
| 20260507160033 | 11 | 108 | 0.0 | 3.2 | 0.03 | 0.15 | 0.13 | 96 | 1010.6 |
| 20260507155533 | 11 | 123 | 0.0 | 4.8 | 0.03 | 0.18 | 0.13 | 96 | 1010.7 |
| 20260507155035 | 11 | 119 | 1.6 | 4.8 | 0.03 | 0.18 | 0.13 | 96 | 1010.9 |
| 20260507154535 | 11 | 192 | 0.0 | 4.8 | 0.03 | 0.18 | 0.13 | 96 | 1010.9 |
| 20260507154031 | 11 | 69 | 0.0 | 0.0 | 0.03 | 0.18 | 0.13 | 96 | 1010.9 |
| 20260507153532 | 11 | 137 | 0.0 | 0.0 | 0.00 | 0.15 | 0.10 | 95 | 1010.9 |
| 20260507153033 | 11 | 67 | 0.0 | 0.0 | 0.00 | 0.15 | 0.10 | 95 | 1011.1 |
| 20260507152530 | 11 | 69 | 0.0 | 1.6 | 0.00 | 0.15 | 0.10 | 96 | 1010.8 |
| 20260507152029 | 11 | 152 | 0.0 | 6.4 | 0.00 | 0.15 | 0.10 | 95 | 1010.7 |
| 20260507151528 | 11 | 102 | 1.6 | 8.0 | 0.00 | 0.15 | 0.10 | 95 | 1010.8 |
| 20260507151027 | 11 | 147 | 0.0 | 8.0 | 0.00 | 0.15 | 0.10 | 95 | 1010.8 |
| 20260507150528 | 11 | 141 | 0.0 | 9.7 | 0.00 | 0.15 | 0.10 | 95 | 1010.9 |
| 20260507150030 | 11 | 114 | 0.0 | 4.8 | 0.00 | 0.15 | 0.10 | 95 | 1011.0 |
| 20260507145526 | 11 | 136 | 0.0 | 6.4 | 0.00 | 0.15 | 0.10 | 95 | 1010.9 |
| 20260507145025 | 11 | 88 | 0.0 | 6.4 | 0.00 | 0.15 | 0.10 | 95 | 1010.9 |
| 20260507144530 | 11 | 105 | 0.0 | 8.0 | 0.00 | 0.15 | 0.10 | 95 | 1011.0 |
| 20260507144026 | 11 | 61 | 4.8 | 6.4 | 0.00 | 0.15 | 0.10 | 95 | 1011.0 |
| 20260507143523 | 11 | 119 | 0.0 | 4.8 | 0.00 | 0.15 | 0.10 | 95 | 1010.8 |
| 20260507143030 | 11 | 123 | 0.0 | 6.4 | 0.00 | 0.15 | 0.10 | 95 | 1010.6 |
| 20260507142522 | 11 | 111 | 3.2 | 6.4 | 0.00 | 0.15 | 0.10 | 95 | 1010.5 |
| 20260507142022 | 11 | 76 | 1.6 | 6.4 | 0.03 | 0.15 | 0.10 | 95 | 1010.5 |
| 20260507141519 | 11 | 79 | 0.0 | 11.3 | 0.03 | 0.15 | 0.10 | 95 | 1010.7 |
| 20260507141019 | 11 | 54 | 0.0 | 11.3 | 0.03 | 0.15 | 0.10 | 95 | 1011.1 |
| 20260507140517 | 11 | 65 | 3.2 | 12.9 | 0.03 | 0.15 | 0.10 | 95 | 1010.9 |
| 20260507140017 | 11 | 94 | 3.2 | 8.0 | 0.05 | 0.15 | 0.10 | 95 | 1010.9 |
| 20260507135515 | 11 | 127 | 1.6 | 9.7 | 0.05 | 0.15 | 0.10 | 95 | 1010.8 |
| 20260507135016 | 12 | 178 | 4.8 | 9.7 | 0.05 | 0.15 | 0.10 | 95 | 1010.9 |
| 20260507134514 | 12 | 132 | 1.6 | 8.0 | 0.05 | 0.15 | 0.10 | 96 | 1011.1 |
| 20260507134014 | 12 | 116 | 0.0 | 4.8 | 0.05 | 0.15 | 0.10 | 95 | 1011.1 |
| 20260507133514 | 12 | 184 | 0.0 | 0.0 | 0.05 | 0.15 | 0.10 | 95 | 1011.1 |
| 20260507133015 | 12 | 97 | 0.0 | 3.2 | 0.05 | 0.15 | 0.10 | 95 | 1010.9 |
| 20260507132511 | 12 | 107 | 0.0 | 4.8 | 0.08 | 0.15 | 0.10 | 95 | 1010.9 |
| 20260507132011 | 12 | 112 | 0.0 | 1.6 | 0.05 | 0.13 | 0.08 | 95 | 1010.9 |
| 20260507131513 | 12 | 125 | 0.0 | 4.8 | 0.05 | 0.13 | 0.08 | 95 | 1010.9 |
| 20260507131010 | 12 | 117 | 0.0 | 4.8 | 0.05 | 0.13 | 0.08 | 95 | 1010.9 |
| 20260507130510 | 12 | 128 | 1.6 | 6.4 | 0.05 | 0.13 | 0.08 | 95 | 1010.9 |
| 20260507130008 | 12 | 68 | 1.6 | 6.4 | 0.03 | 0.10 | 0.05 | 94 | 1010.8 |
| 20260507125508 | 12 | 50 | 1.6 | 6.4 | 0.03 | 0.33 | 0.05 | 94 | 1011.0 |
| 20260507125007 | 12 | 15 | 1.6 | 9.7 | 0.03 | 0.33 | 0.05 | 94 | 1010.9 |
| 20260507124511 | 12 | 92 | 0.0 | 6.4 | 0.03 | 0.33 | 0.05 | 94 | 1010.7 |
| 20260507124006 | 12 | 71 | 1.6 | 6.4 | 0.03 | 0.33 | 0.05 | 94 | 1010.6 |
| 20260507123507 | 12 | 57 | 0.0 | 6.4 | 0.03 | 0.33 | 0.05 | 94 | 1010.6 |
| 20260507123008 | 12 | 71 | 0.0 | 6.4 | 0.03 | 0.33 | 0.05 | 93 | 1010.8 |
| 20260507122502 | 12 | 231 | 0.0 | 6.4 | 0.00 | 0.30 | 0.03 | 93 | 1010.8 |
| 20260507122001 | 12 | 270 | 0.0 | 11.3 | 0.00 | 0.30 | 0.03 | 93 | 1010.7 |
| 20260507121501 | 12 | 199 | 0.0 | 11.3 | 0.00 | 0.30 | 0.03 | 93 | 1010.4 |
| 20260507121101 | 12 | 142 | 1.6 | 14.5 | 0.00 | 0.30 | 0.03 | 93 | 1010.3 |
| 20260507120559 | 12 | 80 | 3.2 | 16.1 | 0.00 | 0.30 | 0.03 | 93 | 1010.6 |
| 20260507120104 | 13 | 144 | 1.6 | 11.3 | 0.00 | 0.30 | 0.03 | 93 | 1010.4 |
| 20260507115556 | 13 | 128 | 3.2 | 17.7 | 0.00 | 0.33 | 0.03 | 92 | 1010.3 |
| 20260507115055 | 13 | 57 | 3.2 | 17.7 | 0.00 | 0.33 | 0.03 | 92 | 1010.2 |
| 20260507114634 | 13 | 179 | 1.6 | 9.7 | 0.00 | 0.33 | 0.03 | 92 | 1010.4 |
| 20260507114055 | 14 | 178 | 0.0 | 12.9 | 0.00 | 0.33 | 0.03 | 91 | 1010.1 |
| 20260507113551 | 14 | 88 | 3.2 | 12.9 | 0.00 | 0.33 | 0.03 | 91 | 1010.0 |
| 20260507113049 | 15 | 96 | 3.2 | 19.3 | 0.00 | 0.33 | 0.03 | 91 | 1009.8 |
| 20260507112549 | 15 | 134 | 1.6 | 19.3 | 0.00 | 0.33 | 0.03 | 91 | 1009.7 |
| 20260507112049 | 15 | 127 | 3.2 | 16.1 | 0.00 | 0.33 | 0.03 | 89 | 1009.5 |
| 20260507111548 | 15 | 103 | 3.2 | 9.7 | 0.00 | 0.33 | 0.03 | 87 | 1009.4 |
| 20260507111046 | 15 | 73 | 0.0 | 8.0 | 0.00 | 0.33 | 0.03 | 88 | 1009.4 |
| 20260507110545 | 16 | 75 | 3.2 | 9.7 | 0.00 | 0.33 | 0.03 | 88 | 1009.1 |
| 20260507110046 | 16 | 360 | 4.8 | 9.7 | 0.00 | 0.33 | 0.03 | 87 | 1009.2 |
| 20260507105542 | 15 | 68 | 3.2 | 9.7 | 0.00 | 0.33 | 0.03 | 88 | 1009.1 |
| 20260507105042 | 15 | 15 | 3.2 | 9.7 | 0.00 | 0.33 | 0.03 | 89 | 1008.9 |
| 20260507104543 | 15 | 34 | 3.2 | 8.0 | 0.00 | 0.33 | 0.03 | 92 | 1008.9 |
| 20260507104040 | 15 | 72 | 0.0 | 6.4 | 0.00 | 0.33 | 0.03 | 94 | 1008.6 |
| 20260507103540 | 15 | 74 | 0.0 | 0.0 | 0.00 | 0.33 | 0.03 | 94 | 1008.5 |
| 20260507103139 | 15 | 119 | 0.0 | 0.0 | 0.00 | 0.33 | 0.03 | 95 | 1008.5 |
| 20260507102538 | 15 | 53 | 0.0 | 0.0 | 0.00 | 0.33 | 0.03 | 94 | 1008.3 |
| 20260507102040 | 15 | 53 | 0.0 | 0.0 | 0.00 | 0.33 | 0.03 | 94 | 1008.3 |
| 20260507101542 | 15 | 53 | 0.0 | 0.0 | 0.00 | 0.33 | 0.03 | 94 | 1008.6 |
| 20260507101036 | 15 | 53 | 0.0 | 4.8 | 0.00 | 0.33 | 0.03 | 94 | 1008.7 |
| 20260507100536 | 16 | 57 | 0.0 | 4.8 | 0.00 | 0.33 | 0.03 | 93 | 1008.6 |
| 20260507100036 | 16 | 137 | 0.0 | 0.0 | 0.00 | 0.33 | 0.03 | 93 | 1008.5 |
| 20260507095535 | 16 | 137 | 0.0 | 0.0 | 0.00 | 0.33 | 0.03 | 93 | 1008.3 |
| 20260507095037 | 16 | 101 | 0.0 | 0.0 | 0.00 | 0.33 | 0.03 | 92 | 1008.6 |
| 20260507094534 | 16 | 12 | 0.0 | 6.4 | 0.00 | 0.33 | 0.03 | 92 | 1008.8 |
| 20260507094034 | 16 | 12 | 1.6 | 8.0 | 0.00 | 0.33 | 0.03 | 92 | 1008.8 |
| 20260507093534 | 16 | 355 | 3.2 | 8.0 | 0.00 | 0.33 | 0.03 | 93 | 1008.6 |
| 20260507093034 | 16 | 173 | 0.0 | 0.0 | 0.00 | 0.33 | 0.03 | 94 | 1008.4 |
| 20260507092533 | 16 | 173 | 0.0 | 0.0 | 0.00 | 0.33 | 0.03 | 94 | 1008.2 |
| 20260507092033 | 16 | 79 | 0.0 | 0.0 | 0.00 | 0.33 | 0.03 | 94 | 1008.0 |
| 20260507091540 | 16 | 109 | 0.0 | 0.0 | 0.00 | 0.33 | 0.03 | 94 | 1008.1 |
| 20260507091032 | 16 | 56 | 0.0 | 6.4 | 0.00 | 0.33 | 0.03 | 94 | 1008.3 |
| 20260507090533 | 16 | 141 | 1.6 | 6.4 | 0.00 | 0.33 | 0.03 | 94 | 1008.5 |
| 20260507090036 | 16 | 132 | 0.0 | 1.6 | 0.00 | 0.33 | 0.03 | 94 | 1008.8 |
| 20260507085530 | 16 | 109 | 0.0 | 1.6 | 0.00 | 0.33 | 0.03 | 94 | 1008.8 |
| 20260507085031 | 16 | 140 | 0.0 | 1.6 | 0.00 | 0.33 | 0.03 | 94 | 1008.7 |
| 20260507084529 | 16 | 140 | 0.0 | 1.6 | 0.00 | 0.33 | 0.03 | 94 | 1008.6 |
| 20260507084027 | 16 | 140 | 0.0 | 3.2 | 0.00 | 0.33 | 0.03 | 94 | 1008.6 |
| 20260507083527 | 16 | 140 | 0.0 | 3.2 | 0.00 | 0.33 | 0.03 | 94 | 1008.5 |
| 20260507083032 | 16 | 43 | 0.0 | 6.4 | 0.00 | 0.33 | 0.03 | 94 | 1008.7 |
| 20260507082526 | 16 | 5 | 1.6 | 8.0 | 0.00 | 0.33 | 0.03 | 93 | 1008.6 |
| 20260507082025 | 16 | 107 | 3.2 | 8.0 | 0.00 | 0.33 | 0.03 | 92 | 1008.4 |
| 20260507081524 | 16 | 253 | 0.0 | 4.8 | 0.00 | 0.33 | 0.03 | 92 | 1008.7 |
| 20260507081024 | 17 | 231 | 0.0 | 9.7 | 0.00 | 0.33 | 0.03 | 91 | 1008.8 |
| 20260507080523 | 17 | 120 | 0.0 | 0.0 | 0.00 | 0.33 | 0.03 | 91 | 1008.7 |
| 20260507080024 | 17 | 120 | 0.0 | 6.4 | 0.00 | 0.33 | 0.03 | 90 | 1008.6 |
| 20260507075523 | 17 | 120 | 0.0 | 16.1 | 0.00 | 0.33 | 0.03 | 88 | 1008.5 |
| 20260507075024 | 17 | 284 | 1.6 | 16.1 | 0.00 | 0.33 | 0.03 | 87 | 1008.4 |
| 20260507074522 | 17 | 244 | 4.8 | 14.5 | 0.00 | 0.33 | 0.03 | 88 | 1008.3 |
| 20260507074021 | 17 | 332 | 0.0 | 9.7 | 0.00 | 0.33 | 0.03 | 91 | 1008.5 |
| 20260507073521 | 17 | 63 | 1.6 | 9.7 | 0.00 | 0.33 | 0.03 | 91 | 1008.2 |
| 20260507073021 | 17 | 137 | 0.0 | 6.4 | 0.00 | 0.33 | 0.03 | 92 | 1007.9 |
| 20260507072521 | 17 | 94 | 0.0 | 4.8 | 0.00 | 0.33 | 0.03 | 92 | 1008.2 |
| 20260507072019 | 17 | 104 | 0.0 | 8.0 | 0.00 | 0.33 | 0.03 | 91 | 1008.3 |
| 20260507071519 | 17 | 41 | 3.2 | 22.5 | 0.00 | 0.33 | 0.03 | 90 | 1008.4 |
| 20260507071018 | 17 | 28 | 8.0 | 22.5 | 0.00 | 0.33 | 0.03 | 88 | 1008.5 |
| 20260507070518 | 17 | 333 | 3.2 | 16.1 | 0.00 | 0.33 | 0.03 | 93 | 1008.4 |
| 20260507070021 | 17 | 275 | 1.6 | 22.5 | 0.00 | 0.33 | 0.03 | 95 | 1008.5 |
| 20260507065516 | 17 | 319 | 4.8 | 22.5 | 0.00 | 0.33 | 0.03 | 97 | 1008.4 |
| 20260507065016 | 16 | 303 | 0.0 | 4.8 | 0.00 | 0.33 | 0.03 | 97 | 1008.3 |
| 20260507064516 | 16 | 192 | 1.6 | 4.8 | 0.00 | 0.33 | 0.03 | 97 | 1008.0 |
| 20260507064017 | 16 | 321 | 0.0 | 0.0 | 0.00 | 0.33 | 0.03 | 97 | 1008.2 |
| 20260507063516 | 16 | 346 | 0.0 | 0.0 | 0.00 | 0.33 | 0.03 | 97 | 1008.1 |
| 20260507063015 | 16 | 241 | 0.0 | 0.0 | 0.00 | 0.33 | 0.03 | 97 | 1008.0 |
| 20260507062515 | 17 | 241 | 0.0 | 0.0 | 0.00 | 0.33 | 0.03 | 97 | 1008.1 |
| 20260507062017 | 17 | 241 | 0.0 | 3.2 | 0.00 | 0.33 | 0.03 | 97 | 1008.1 |
| 20260507061514 | 17 | 331 | 0.0 | 3.2 | 0.00 | 0.33 | 0.03 | 97 | 1008.3 |
| 20260507061012 | 17 | 238 | 0.0 | 3.2 | 0.00 | 0.33 | 0.03 | 97 | 1008.3 |
| 20260507060514 | 17 | 263 | 0.0 | 6.4 | 0.00 | 0.33 | 0.03 | 97 | 1008.6 |
| 20260507060014 | 17 | 285 | 0.0 | 8.0 | 0.00 | 0.33 | 0.03 | 97 | 1008.7 |
| 20260507055510 | 17 | 184 | 1.6 | 8.0 | 0.00 | 0.33 | 0.03 | 97 | 1008.6 |
| 20260507055010 | 17 | 268 | 1.6 | 8.0 | 0.00 | 0.33 | 0.03 | 97 | 1008.8 |
| 20260507054518 | 17 | 223 | 0.0 | 9.7 | 0.00 | 0.33 | 0.03 | 97 | 1009.2 |
| 20260507054016 | 17 | 267 | 3.2 | 9.7 | 0.00 | 0.33 | 0.03 | 97 | 1009.2 |
| 20260507053509 | 17 | 298 | 0.0 | 8.0 | 0.00 | 0.33 | 0.03 | 97 | 1009.0 |
| 20260507053008 | 17 | 306 | 0.0 | 6.4 | 0.00 | 0.33 | 0.03 | 97 | 1008.8 |
| 20260507052510 | 17 | 271 | 3.2 | 6.4 | 0.00 | 0.33 | 0.03 | 97 | 1008.8 |
| 20260507052009 | 17 | 298 | 0.0 | 4.8 | 0.00 | 0.33 | 0.03 | 97 | 1008.5 |
| 20260507051508 | 17 | 252 | 0.0 | 4.8 | 0.03 | 0.33 | 0.03 | 97 | 1008.3 |
| 20260507051008 | 17 | 219 | 0.0 | 4.8 | 0.03 | 0.33 | 0.03 | 97 | 1008.3 |
| 20260507050507 | 17 | 294 | 0.0 | 4.8 | 0.03 | 0.33 | 0.03 | 97 | 1008.4 |
| 20260507050006 | 17 | 248 | 0.0 | 0.0 | 0.03 | 0.33 | 0.03 | 97 | 1008.2 |
| 20260507045506 | 17 | 134 | 0.0 | 3.2 | 0.03 | 0.33 | 0.03 | 97 | 1008.3 |
| 20260507045006 | 17 | 134 | 0.0 | 3.2 | 0.03 | 0.33 | 0.03 | 97 | 1008.4 |
| 20260507044506 | 17 | 242 | 0.0 | 4.8 | 0.03 | 0.33 | 0.03 | 97 | 1008.5 |
| 20260507044004 | 17 | 329 | 0.0 | 8.0 | 0.03 | 0.33 | 0.03 | 97 | 1008.4 |
| 20260507043607 | 17 | 297 | 3.2 | 8.0 | 0.05 | 0.33 | 0.03 | 96 | 1008.4 |
| 20260507043004 | 17 | 278 | 0.0 | 4.8 | 0.05 | 0.33 | 0.03 | 97 | 1008.0 |
| 20260507042501 | 17 | 278 | 0.0 | 4.8 | 0.05 | 0.33 | 0.03 | 96 | 1008.4 |
| 20260507042100 | 17 | 287 | 0.0 | 1.6 | 0.05 | 0.33 | 0.03 | 96 | 1008.6 |
| 20260507041600 | 17 | 287 | 0.0 | 3.2 | 0.03 | 0.30 | 0.00 | 96 | 1008.8 |
| 20260507041058 | 17 | 295 | 0.0 | 4.8 | 0.03 | 0.30 | 0.00 | 96 | 1009.0 |
| 20260507040557 | 17 | 288 | 0.0 | 0.0 | 0.03 | 0.30 | 0.00 | 96 | 1008.9 |
| 20260507040100 | 17 | 288 | 0.0 | 1.6 | 0.03 | 0.30 | 0.00 | 95 | 1009.1 |
| 20260507035555 | 17 | 288 | 0.0 | 6.4 | 0.03 | 0.30 | 0.30 | 96 | 1009.4 |
| 20260507035055 | 17 | 288 | 0.0 | 6.4 | 0.03 | 0.30 | 0.30 | 95 | 1009.7 |
| 20260507034558 | 17 | 269 | 0.0 | 6.4 | 0.03 | 0.30 | 0.30 | 95 | 1009.8 |
| 20260507034055 | 17 | 251 | 0.0 | 6.4 | 0.03 | 0.30 | 0.30 | 95 | 1010.0 |
| 20260507033554 | 17 | 243 | 0.0 | 6.4 | 0.00 | 0.28 | 0.28 | 95 | 1010.0 |
| 20260507033100 | 17 | 299 | 0.0 | 4.8 | 0.00 | 0.28 | 0.28 | 94 | 1010.0 |
| 20260507032555 | 17 | 210 | 0.0 | 4.8 | 0.00 | 0.28 | 0.28 | 94 | 1009.8 |
| 20260507032053 | 18 | 255 | 0.0 | 4.8 | 0.00 | 0.28 | 0.28 | 93 | 1009.4 |
| 20260507031554 | 18 | 302 | 0.0 | 14.5 | 0.00 | 0.28 | 0.28 | 93 | 1009.3 |
| 20260507031054 | 18 | 309 | 3.2 | 14.5 | 0.00 | 0.28 | 0.28 | 93 | 1009.1 |
| 20260507030654 | 18 | 281 | 0.0 | 9.7 | 0.00 | 0.28 | 0.28 | 93 | 1009.5 |
| 20260507030053 | 18 | 275 | 1.6 | 16.1 | 0.00 | 0.28 | 0.28 | 93 | 1010.1 |
| 20260507025552 | 18 | 283 | 3.2 | 17.7 | 0.00 | 0.28 | 0.28 | 93 | 1010.2 |
| 20260507025052 | 18 | 273 | 4.8 | 17.7 | 0.00 | 0.28 | 0.28 | 93 | 1009.6 |
| 20260507024604 | 18 | 246 | 1.6 | 6.4 | 0.00 | 0.28 | 0.28 | 92 | 1009.3 |
| 20260507024055 | 18 | 227 | 1.6 | 8.0 | 0.00 | 0.28 | 0.28 | 92 | 1009.4 |